CZ-3C DEB, 40170

Orbit data source: Space-Track

CZ-3C DEB, 40170 is space debris in HEO originally from a launch on Sun, 31 Oct 2010 UTC launched from the Xichang Space Center, China (XSC). Debris objects in space refer to the collection of defunct objects orbiting the Earth. Examples of debris include non-operational satellites, rocket bodies, and fragments generated from explosions, collisions, or faulty payload assembly.

Loading next visibility...
Identifier
40170, 2010-057Y
Orbit
HEO
Country
Flag of CNCN / PRC
Related business
Manufacturer
CALT
Mission
Spacecraft
Bus & Motor
Unknown
Mass
Unknown
Launch date (UTC)
2010-10-31 (15 years ago)
Launch vehicle
Unknown
Launch site
Xichang Space Center, China (XSC)
Object type
Payload
Rocket body
Debris
Shape & HBR
Unknown shape, 0.3 m
Radar Cross Section
Medium (>0.1 m² and <1 m²)

Expand to show TLE details & history
Last TLE update: 13 hours ago

TLE from 13 hours ago
0 CZ-3C DEB
1 40170U 10057Y   25346.90684214  .00000083  00000-0  34658-2 0  9998
2 40170  19.8812 171.4739 7105841  24.4460  79.9860  2.23789383101557
Epoch: 2025-12-12T21:45Z
TLE epoch observation values (Epoch: 2025-12-12T21:45:51.160Z)
Latitude
1.39277°
Longitude
-60.74234°
Altitude
26,088.595 km
Speed
2.9 km/s
True Right ascension
23h 10m 15s
True Declination
1° 23' 27"
Sunlit
Object was in daylight at epoch
Visualization orbit readout
Latitude
Unknown
Longitude
Unknown
Altitude
Unknown
Speed
Unknown
Apparent Right ascension
Unknown
Apparent Declination
Unknown
Sunlit
N/A
Visualization observer readout
Local Sidereal Time
09:17:37
Azimuth
Unknown
Elevation
Unknown
Doppler factor
Unknown
Orbital elements
Apogee altitude
35,862.262 km
Perigee altitude
768.57 km
Semi-major axis
24,693.553 km
Eccentricity
0.71058
Inclination
19.8812°
RAAN
171.4739°
Arg. of periapsis
24.446°
True anomaly
151.40692°
Mean anomaly
79.986°
Eccentric anomaly
116.44067°
Mean motion
0.55933 °/min
Orbital period
643.63 mins
BSTAR
0.0034658
Loading maneuver chart data...
Computing Atmospheric mass density...
Loading historical data...
Loading historical data...
Loading historical data...
Loading historical data...
Loading historical data...
Loading historical data...
Loading historical data...

Documentation

Showing up to 5 results
|